Regional Weather Roundup
Issued by NWS

Home | Current Version | Previous Version | Graphics & Text | Print | Product List | Glossary On
Versions: 1 2 3 4 5 6 7 8 9 10 11 12 13 14 15 16 17 18 19 20 21 22 23 24 25 26 27
000
ASUS45 KSLC 281910
RWRUT

UTAH REGIONAL WEATHER ROUNDUP
NATIONAL WEATHER SERVICE SALT LAKE CITY UT
100 PM MDT TUE MAR 28 2017

UTZ001>011-023>025-282000-

NORTHERN UTAH

CITY           SKY/WX    TMP DP  RH WIND       PRES   REMARKS
BRIGHAM CITY     N/A     50  30  45 NW10G17   30.15S
DUGWAY         MOSUNNY   48  37  65 NW17G23   30.14F
HILL AFB       MOSUNNY   47  29  50 NW12      30.13S
LOGAN          MOSUNNY   51  35  54 N17       30.14F
OGDEN          SUNNY     49  32  52 NW14      30.13S
SALT LAKE CITY MOSUNNY   49  34  56 NW16      30.13F
TOOELE VALLEY  SUNNY     46  36  66 N14G20    30.16S
WENDOVER       SUNNY     50  19  29 N10G17    30.19
HEBER CITY     CLOUDY    46  30  53 NE13G18   30.08F
WEST JORDAN    SUNNY     51  43  73 NW23      30.13R

$$

UTZ011>015-024>027-282000-

CENTRAL/NORTHEAST UTAH

CITY           SKY/WX    TMP DP  RH WIND       PRES   REMARKS
PROVO AIRPORT  MOSUNNY   50  36  58 NW16      30.11F
MOAB/CANYONLAN CLOUDY    52  36  54 VRB7      29.92S
DELTA          CLOUDY    43  32  65 W6        30.14F
PRICE          MOSUNNY   49  32  52 NW18G25   29.98F
RICHFIELD      PTSUNNY   46  30  53 N7        30.13F
ROOSEVELT      CLOUDY    54  34  47 E8        29.99S
VERNAL         CLOUDY    52  28  39 N21G29    29.97S

$$

UTZ013>016-019>022-027-282000-

SOUTHERN UTAH

CITY           SKY/WX    TMP DP  RH WIND       PRES   REMARKS
BRYCE CANYON   SUNNY     44  25  47 N21G29    30.04S
CEDAR CITY     PTSUNNY   41  31  67 NE10      30.12F
MILFORD        PTSUNNY   44  31  60 NE12      30.14F
ST GEORGE      PTCLDY    61  25  25 S15       30.04F
HANKSVILLE     CLOUDY    59  27  29 N14       29.95F
KANAB          SUNNY     57  27  30 N18       30.04S
BLANDING       CLOUDY    46  39  76 SE3       29.95F

$$

REGIONAL REPORTS     COLORADO/ARIZONA

CITY           SKY/WX    TMP DP  RH WIND       PRES   REMARKS
CRAIG, CO      LGT RAIN  40  37  89 SW10      29.93F WCI  33
GRAND JUNCTION LGT RAIN  48  39  71 NW6G16    29.92R
RIFLE, CO      CLOUDY    50  35  56 W14       29.89F
MONTROSE, CO   CLOUDY    43  39  86 NW9       29.92S
CORTEZ, CO     CLOUDY    46  39  76 W12       29.85F
COLORADO CITY    N/A     55  27  33 NW15G22   30.05S
PAGE, AZ       CLOUDY    57  26  30 VRB3      29.93F
GRAND CANYON   MOSUNNY   49  27  42 VRB6      29.99S
KINGMAN, AZ    SUNNY     61  11  14 N15G26    30.02F
FLAGSTAFF, AZ  PTSUNNY   42  26  53 VRB6      29.97R

$$

REGIONAL REPORTS    NEVADA/IDAHO/WYOMING

CITY           SKY/WX    TMP DP  RH WIND       PRES   REMARKS
LAS VEGAS, NV  SUNNY     66  17  15 N17G23    30.08S
ELY, NY        SUNNY     42  25  50 N12       30.19S
ELKO, NV       SUNNY     45  22  40 VRB3      30.25S
POCATELLO, ID  MOSUNNY   45  31  58 W10       30.21F
BURLEY, ID     SUNNY     47  27  45 W17G23    30.22S
FORT BRIDGER,  CLOUDY    41  30  65 NW6       30.11S
EVANSTON, WY   MOSUNNY   39  26  59 N21       30.09F WCI  29
ROCK SPRINGS,  LGT SNOW  35  32  88 NW7       30.07S VSB 1   WCI  29
KEMMERER, WY     N/A     37  28  70 NW10      30.08F WCI  30

$$




USA.gov is the U.S. government's official web portal to all federal, state and local government web resources and services.